Weather observations for the past three days for
Point Hope, Point Hope Airport
Metric (Imperial)
Date Time (akdt) Wind (kph) Vis. (km) Weather Sky Cond. Temperature (ºC) Relative Humidity Wind Chill (°C) Heat Index (°C) Pressure Precipitation (cm)
Air Dwpt 6 hour altimeter (cm) sea level (mb) 1 hr 3 hr 6 hr
Max. Min.
21 08:56 N 17 16.09 Fair CLR 5 1.7 79% 2 76.17 1015.5
21 07:56 N 17 16.09 Fair CLR 4.4 1.7 83% 1 76.2 1015.6
21 06:56 N 15 16.09 Fair CLR 4.4 1.7 83% 1 76.2 1015.8
21 05:56 N 15 14.48 Fair CLR 3.9 1.7 86% 1 76.2 1015.9
21 04:56 N 13 14.48 Fair CLR 3.3 1.1 86% 0 76.25 1016.4
21 03:56 N 11 16.09 Fair CLR 2.8 1.1 5.6 2.8 89% 0 76.28 1016.6
21 02:56 N 9 16.09 Fair CLR 3.3 1.1 86% 1 76.28 1016.7
21 01:56 N 15 16.09 Fair CLR 3.3 1.1 86% 0 76.28 1016.7
21 00:56 N 17 16.09 Fair CLR 3.9 1.7 86% 0 76.28 1016.6
20 23:56 N 20 16.09 Fair CLR 3.9 1.7 86% 0 76.28 1016.7
20 22:56 N 17 16.09 Fair CLR 5 2.2 82% 2 76.28 1016.9
20 21:56 Vrbl 11 16.09 Fair CLR 5.6 2.2 6.1 4.4 79% 3 76.3 1017.2
20 20:56 NW 9 16.09 Overcast OVC090 5.6 2.2 79% 4 76.35 1017.7
20 19:56 N 15 16.09 Partly Cloudy SCT090 5 2.2 82% 2 76.35 1017.7
20 18:56 NW 22 16.09 Fair CLR 5 2.2 82% 1 76.38 1018.2
20 17:56 NW 20 16.09 Fair CLR 4.4 1.7 83% 1 76.4 1018.5
20 16:56 NW 20 16.09 Fair CLR 4.4 1.7 83% 1 76.43 1018.7
20 15:56 NW 17 16.09 Fair CLR 4.4 1.7 5 2.2 83% 1 76.43 1019.0
20 14:56 W 19 16.09 Fair CLR 3.9 1.1 82% 0 76.45 1019.2
20 13:56 NW 15 16.09 Fair CLR 3.9 1.1 82% 1 76.48 1019.5
20 12:56 NW 13 16.09 Fair CLR 3.3 1.1 86% 0 76.48 1019.6
20 11:56 NW 13 16.09 Fair CLR 3.3 1.1 86% 0 76.48 1019.5
20 10:56 NW 15 16.09 Fair CLR 3.3 0.6 83% 0 76.48 1019.6
20 09:56 NW 13 16.09 Fair CLR 2.2 0.6 2.2 1.1 89% -1 76.5 1019.9
20 08:56 NW 13 16.09 Fair CLR 2.2 0.6 89% -1 76.5 1020.0
20 07:56 NW 11 16.09 Fair CLR 2.2 0.6 89% -1 76.5 1019.9
20 06:56 N 9 16.09 Fair CLR 1.7 0.6 93% -1 76.53 1020.1
20 05:56 N 9 16.09 Fair CLR 1.7 0.6 93% -1 76.5 1019.9
20 04:56 NW 17 16.09 Fair CLR 1.7 0.6 93% -2 76.5 1019.8
20 03:56 NW 15 16.09 Fair CLR 1.1 0.6 3.3 1.1 97% -3 76.5 1019.9
20 02:56 NW 15 16.09 Fair CLR 1.7 0.6 93% -2 76.5 1019.8
20 01:56 NW 13 16.09 Mostly Cloudy SCT004 BKN060 BKN085 1.7 0.6 93% -2 76.5 1019.7
20 00:56 NW 15 16.09 Mostly Cloudy FEW080 BKN095 1.7 0.6 93% -2 76.5 1019.7
19 23:56 NW 15 16.09 Mostly Cloudy FEW060 BKN110 1.7 0.6 93% -2 76.48 1019.4
19 22:56 NW 17 16.09 Overcast OVC120 2.8 1.1 89% -1 76.45 1019.3
19 21:56 NW 15 16.09 Fair CLR 2.8 1.1 3.9 2.8 89% -1 76.45 1019.3
19 20:56 N 15 16.09 Fair CLR 3.3 1.7 89% 0 76.43 1018.8
19 19:56 N 15 16.09 Fair CLR 3.3 1.1 86% 0 76.4 1018.3
19 18:56 N 13 16.09 Fair CLR 3.9 1.1 82% 1 76.43 1018.7
19 17:56 NW 13 11.27 Mostly Cloudy BKN002 3.3 1.1 86% 0 76.43 1018.7
19 16:56 N 13 2.01 Fog/Mist OVC002 3.3 1.1 86% 0 76.43 1018.7
19 15:56 NW 13 4.02 Fog/Mist OVC004 2.8 1.1 4.4 1.1 89% -0 76.4 1018.5
19 14:56 NW 11 16.09 Mostly Cloudy FEW004 BKN021 3.3 0.6 83% 1 76.35 1017.9
19 13:56 Vrbl 6 16.09 Overcast OVC023 3.9 0.6 79% 76.33 1017.6
19 12:56 N 17 16.09 Overcast OVC015 2.8 0.6 86% -1 76.3 1017.0
19 11:56 NW 11 16.09 Overcast OVC017 1.7 0.6 93% -1 76.28 1016.8
19 10:56 N 13 16.09 Overcast SCT002 OVC017 1.1 0 92% -2 76.25 1016.3
19 09:56 N 13 4.02 Fog/Mist OVC002 1.1 0 1.7 0.6 92% -2 76.2 1015.9
19 08:56 NW 11 0.40 Fog OVC002 0.6 0 96% -2 76.17 1015.6
19 07:56 N 11 0.80 Fog OVC002 1.1 0 92% -2 76.15 1015.2
19 06:56 W 11 11.27 Mostly Cloudy SCT002 BKN080 1.1 0.6 97% -2 76.12 1014.6
19 05:56 W 11 16.09 Overcast FEW002 OVC032 1.7 0.6 93% -1 76.1 1014.5
19 04:56 W 9 16.09 Overcast SCT002 OVC030 1.1 0 92% -1 76.07 1014.0
19 03:56 W 11 16.09 Overcast FEW024 OVC034 0.6 0 1.1 0.6 96% -2 76.05 1013.6 0.15
19 02:56 W 11 16.09 Light Rain SCT005 BKN023 OVC110 0.6 0 96% -2 76 1013.1 0.05
19 01:56 W 9 11.27 Rain BKN003 BKN008 OVC055 0.6 0 96% -2 76 1012.9 0.08
19 00:56 W 7 11.27 Light Rain OVC023 1.1 0 92% -1 75.95 1012.4 0.03 0.03
18 23:56 W 13 16.09 Overcast OVC025 1.1 0 92% -2 75.9 1011.8
18 22:56 W 11 14.48 Overcast BKN002 OVC023 1.1 0 92% -2 75.9 1011.6
18 21:56 W 11 16.09 Overcast BKN004 OVC027 1.1 0 3.9 1.1 92% -2 75.9 1011.5
18 20:56 NW 13 16.09 Overcast FEW003 BKN025 OVC031 1.1 0 92% -2 75.84 1011.2
18 19:56 W 13 1.61 Fog/Mist BKN003 OVC027 1.7 -0.6 85% -2 75.87 1011.2
18 18:56 NW 15 16.09 Overcast FEW002 OVC046 3.9 0 76% 1 75.84 1011.0
18 17:56 NW 13 16.09 Overcast SCT002 OVC048 2.8 0.6 86% -0 75.84 1011.0
18 16:56 W 13 16.09 Overcast FEW002 OVC050 2.2 -0.6 82% -1 75.87 1011.3
18 14:56 NW 9 1.61 Overcast with Haze OVC002 3.3 0.6 83% 1 75.84 1011.1
18 13:56 N 9 1.61 Fog/Mist OVC004 3.3 1.1 86% 1 75.87 1011.2
18 12:56 NW 13 1.21 Overcast with Haze OVC004 3.3 0.6 83% 0 75.87 1011.3
18 11:56 N 11 4.83 Fog/Mist OVC004 2.2 1.1 93% -1 75.9 1011.7
18 10:56 NW 17 2.82 Fog/Mist OVC004 1.7 1.1 96% -2 75.9 1011.7
18 09:56 NW 20 1.21 Unknown Precip Fog/Mist OVC004 1.1 0 1.1 0 92% -3 75.9 1011.8
Date Time (akdt) Wind (kph) Vis. (km) Weather Sky Cond. Air Dwpt Max. Min. Relative Humidity Wind Chill (°C) Heat Index (°C) altimeter (cm) sea level (mb) 1 hr 3 hr 6 hr
6 hour
Temperature (ºC) Pressure Precipitation (cm)